Wind_Speed
13 13 12 12 13 13 13 13 13 13 13 13 14 15 16 16 17 17 18 18 19 20 20 20 21 21 21 21 22 22 22 22 21 22 24 25 24 24 25 25 26 26 26
14 14 14 14 14 14 14 14 14 14 14 14 15 16 17 17 18 18 19 19 20 20 21 21 22 22 22 22 23 24 24 24 23 23 24 26 25 25 26 26 26 27 28
15 15 15 15 14 14 14 14 14 14 15 16 16 17 17 18 18 19 19 20 20 21 22 22 22 23 23 23 23 24 24 25 25 25 25 27 27 27 27 27 27 28 29
15 16 16 15 15 15 15 15 15 16 16 17 17 18 18 18 18 19 20 21 22 22 23 23 23 24 24 24 25 25 25 26 25 26 26 27 29 29 29 28 28 29 29
16 17 17 16 16 16 16 16 16 16 16 17 18 19 19 19 19 20 20 22 23 24 24 24 24 25 24 24 25 25 26 27 27 28 28 28 30 29 29 29 30 30 31
17 18 17 16 16 16 16 17 17 17 17 18 19 19 20 20 20 21 22 23 23 23 23 24 24 24 24 25 26 26 26 27 27 27 28 29 29 29 29 30 30 30 31
18 17 17 17 17 17 18 18 18 19 19 19 19 19 20 21 21 22 23 23 23 23 23 24 24 25 25 26 26 26 27 27 27 26 27 28 29 29 29 30 30 30 31
18 18 18 19 19 19 19 19 19 19 19 20 20 21 21 22 22 23 23 24 24 23 23 23 24 24 24 25 26 26 26 26 26 26 27 28 29 29 29 30 31 31 32
19 19 19 20 20 20 20 20 20 20 20 21 21 22 23 23 23 23 23 23 23 23 23 23 23 23 24 24 25 25 25 26 26 26 27 28 28 29 30 31 31 32 32
20 20 21 21 21 21 21 21 21 21 22 22 23 23 23 24 24 24 23 23 23 22 23 23 23 22 23 24 24 25 25 25 26 27 27 28 29 30 31 32 33 34 34
21 21 22 22 21 21 22 22 23 22 23 23 23 24 24 24 24 24 23 23 23 23 23 24 24 24 24 24 25 25 25 26 26 27 28 28 29 30 31 32 34 35 35
22 22 22 22 22 22 22 23 23 23 23 24 24 24 24 25 24 24 24 23 23 24 25 24 24 24 24 24 25 26 27 28 28 29 29 30 30 31 32 33 34 35 35
24 24 23 23 23 23 23 23 24 24 24 24 24 24 25 25 25 24 24 24 24 24 25 25 25 25 26 27 27 28 29 29 29 30 31 31 32 33 34 34 34 34 34
25 25 25 24 24 24 23 24 24 24 24 25 25 25 25 25 25 24 24 24 24 24 24 25 25 26 27 28 29 30 30 31 31 31 32 32 33 33 33 33 33 33 33
25 26 25 24 24 24 24 24 24 24 25 25 25 26 26 25 25 25 25 25 24 24 25 26 26 27 28 29 29 30 31 31 32 32 32 32 32 32 32 32 32 32 32
27 27 26 25 25 24 24 24 24 25 25 26 26 26 25 25 25 25 25 26 26 26 27 27 28 29 29 29 29 29 30 31 31 31 32 32 33 33 32 32 32 32 32
27 27 26 25 25 24 24 25 25 25 26 26 26 25 25 24 25 25 26 27 27 27 28 28 29 29 29 29 29 30 30 31 31 31 32 32 33 32 32 32 32 31 31
28 27 27 26 25 25 25 25 25 26 26 25 25 24 24 24 25 25 26 26 27 28 28 28 28 29 29 29 30 30 30 31 31 31 32 32 32 31 31 31 31 31 30
29 28 27 26 26 26 26 26 26 26 26 25 25 25 25 25 26 26 26 26 27 27 28 28 29 29 29 29 30 30 30 30 31 31 31 31 31 30 30 29 28 28 28
29 28 28 27 27 27 27 26 26 25 25 25 25 25 26 26 26 26 26 27 27 27 28 28 28 29 29 30 30 30 30 30 31 31 30 30 30 29 28 28 27 27 27
28 27 28 28 28 27 27 26 26 25 25 25 26 26 26 26 26 26 27 27 27 28 28 29 29 29 30 30 30 30 30 30 31 30 30 29 29 28 28 27 27 27 27
27 27 27 27 26 26 26 26 26 26 26 26 26 26 26 26 26 27 27 28 28 27 28 29 29 29 29 29 30 30 30 30 30 29 29 28 28 28 28 28 28 27 27
27 27 26 26 25 25 26 25 25 25 26 26 25 25 26 27 27 27 27 28 27 27 28 29 29 29 30 30 30 30 29 29 29 29 29 29 28 28 27 27 27 26 26
26 25 25 25 25 25 25 25 25 25 25 26 25 26 26 27 28 27 27 27 27 28 28 29 30 30 30 30 30 30 29 29 29 29 29 29 28 27 27 26 25 25 25
25 25 24 24 25 24 25 25 25 25 26 26 25 26 27 27 27 27 27 27 28 29 29 30 30 30 30 30 30 29 29 29 29 28 28 28 27 26 26 25 24 24 24
24 24 24 24 24 24 24 24 25 25 25 26 26 26 26 27 27 28 28 29 29 30 30 30 30 30 30 29 29 29 29 29 28 27 27 26 26 25 24 23 23 23 23
Wind_Direction
322 323 323 321 316 315 310 308 305 303 303 301 298 295 295 294 293 294 292 290 290 291 291 291 289 288 289 289 288 286 285 287 288 285 283 280 278 277 276 276 276 276 275
321 321 319 320 319 317 311 309 306 304 306 305 302 299 297 297 296 294 292 292 293 293 291 290 290 290 290 288 288 287 286 286 287 285 283 283 282 280 278 276 278 277 277
323 324 323 321 320 319 317 312 310 307 306 303 302 301 298 296 296 294 292 294 294 293 292 291 291 291 291 290 290 288 286 285 288 288 286 286 283 281 280 279 280 279 280
322 322 324 321 320 320 319 316 311 308 306 304 304 303 301 300 299 297 295 293 293 291 291 292 292 292 291 290 290 288 287 287 289 289 286 286 285 283 282 283 283 282 282
321 321 321 320 319 318 318 319 315 313 313 310 307 307 306 304 301 300 300 298 295 292 292 292 292 291 291 293 292 290 289 288 287 287 286 285 284 284 282 282 283 283 283
317 319 318 316 316 316 316 317 319 319 317 315 314 312 309 306 305 304 302 301 299 297 296 295 294 294 295 295 295 294 293 289 287 286 284 284 285 286 285 284 284 283 283
315 316 315 314 315 315 316 316 316 316 315 314 313 314 312 309 307 306 305 304 303 301 299 297 296 296 296 297 296 295 294 291 288 287 285 285 285 286 286 286 285 284 284
312 313 313 314 314 312 313 314 313 313 313 313 314 314 313 312 310 308 306 305 304 303 302 302 301 298 298 299 298 298 296 293 291 289 288 288 286 287 287 285 284 285 285
311 311 312 312 312 312 311 312 311 310 311 313 313 314 313 312 311 310 310 309 308 307 305 304 303 301 299 300 300 299 298 295 293 292 291 291 288 287 287 287 288 288 289
307 309 310 310 311 311 311 310 310 311 312 313 312 313 314 314 314 312 310 308 308 307 306 305 304 303 302 301 301 301 301 299 297 295 293 293 293 293 291 290 290 291 291
305 307 309 310 311 313 314 313 313 312 312 312 312 313 314 313 312 311 308 307 306 305 305 305 303 302 302 303 303 302 302 301 301 300 298 296 296 296 295 293 292 292 293
303 304 306 306 308 310 312 312 313 313 312 312 313 313 313 313 312 311 310 309 308 307 306 305 304 304 303 304 304 304 304 303 303 301 300 299 298 297 296 295 294 294 294
299 301 302 304 305 308 310 312 312 312 312 312 313 313 313 313 312 311 311 311 309 308 308 306 305 305 305 305 305 305 305 304 304 303 301 299 299 299 298 297 296 296 296
295 298 300 301 302 305 307 310 311 312 312 311 311 312 312 312 312 311 311 310 309 309 310 308 308 307 306 306 306 305 305 305 305 305 303 302 302 302 301 300 300 300 298
293 296 298 299 301 302 305 308 309 309 310 310 310 310 310 310 310 310 310 311 310 309 309 309 307 307 307 306 306 306 307 307 307 307 306 305 304 303 303 303 302 301 301
291 294 296 297 299 302 305 306 307 307 308 308 309 309 309 309 309 309 309 310 310 309 311 310 310 310 310 309 309 309 309 308 308 308 307 307 306 306 306 305 305 303 303
289 292 293 294 296 299 302 304 305 306 308 309 309 308 308 309 309 310 310 310 309 310 310 310 311 311 311 310 310 310 310 310 310 309 309 309 309 308 307 307 307 306 304
286 288 290 293 294 296 298 301 303 306 308 308 309 309 309 309 309 309 310 310 310 310 310 310 311 311 311 311 310 311 311 311 312 312 312 311 310 309 309 309 307 306 306
284 284 286 289 292 295 297 299 302 304 305 305 306 307 307 307 308 308 309 310 310 311 311 311 312 312 312 311 312 312 312 313 314 314 314 313 313 312 312 311 310 309 309
283 283 284 287 291 293 296 298 300 302 302 303 304 304 306 306 307 308 309 310 311 312 313 313 313 313 312 312 312 312 313 314 315 316 315 315 315 315 315 315 314 313 312
281 282 283 287 290 292 294 296 298 300 300 301 302 303 304 305 307 308 308 309 310 311 311 312 313 313 313 313 313 314 314 314 315 315 315 315 315 316 316 316 315 314 314
280 280 283 286 289 289 291 293 295 297 298 299 301 302 304 305 306 306 307 308 309 310 311 312 313 313 314 314 314 314 315 315 315 315 315 315 316 315 315 315 316 316 316
280 281 283 286 288 290 290 291 293 296 297 298 300 302 303 304 305 305 306 307 309 310 310 311 312 313 314 314 315 316 316 317 317 316 316 316 316 316 316 316 316 316 316
279 281 284 287 289 289 290 292 293 294 295 296 298 300 303 304 304 305 306 307 308 309 310 311 312 312 314 314 315 315 315 315 315 315 316 316 317 317 317 317 317 318 318
279 282 284 286 287 289 290 293 295 295 295 296 299 301 303 303 304 305 305 306 308 309 310 310 311 312 313 314 314 314 314 314 315 315 316 316 316 317 317 317 318 318 319
278 282 284 286 287 288 289 292 294 295 296 297 300 302 303 304 305 305 305 306 307 309 310 310 311 312 313 313 313 313 314 314 315 315 315 316 316 317 317 318 319 319 320
Height
5892 5891 5889 5888 5887 5886 5885 5885 5884 5884 5883 5882 5882 5881 5881 5880 5879 5879 5878 5877 5876 5875 5874 5873 5872 5871 5870 5870 5869 5868 5867 5866 5866 5865 5863 5862 5861 5861 5860 5859 5859 5858 5857
5891 5890 5888 5887 5886 5885 5883 5882 5882 5881 5880 5880 5879 5878 5877 5876 5875 5875 5874 5872 5871 5870 5869 5868 5867 5866 5865 5864 5863 5862 5861 5860 5859 5858 5857 5856 5855 5854 5853 5853 5852 5851 5850
5890 5888 5887 5885 5884 5883 5881 5880 5879 5878 5878 5877 5876 5875 5874 5873 5872 5871 5869 5868 5867 5865 5864 5863 5862 5861 5859 5858 5857 5856 5854 5853 5852 5851 5850 5849 5848 5847 5846 5845 5844 5843 5842
5888 5887 5885 5884 5882 5881 5880 5878 5877 5876 5875 5874 5873 5871 5870 5869 5868 5866 5865 5864 5862 5861 5859 5858 5856 5855 5854 5852 5851 5849 5848 5847 5846 5845 5843 5842 5841 5840 5839 5838 5836 5835 5834
5886 5885 5883 5882 5880 5879 5878 5876 5875 5873 5871 5870 5869 5868 5866 5865 5863 5862 5860 5858 5857 5855 5853 5852 5850 5849 5847 5846 5844 5843 5841 5840 5839 5837 5836 5835 5833 5832 5831 5830 5828 5827 5825
5884 5883 5881 5880 5878 5877 5875 5874 5872 5870 5869 5867 5865 5864 5862 5860 5858 5856 5855 5853 5851 5849 5848 5846 5844 5843 5841 5839 5838 5836 5834 5832 5831 5829 5828 5827 5826 5824 5823 5821 5819 5818 5817
5882 5881 5879 5877 5876 5874 5873 5871 5869 5868 5866 5864 5862 5860 5858 5856 5854 5852 5850 5847 5846 5843 5841 5840 5838 5836 5835 5833 5831 5828 5826 5824 5823 5822 5821 5819 5818 5816 5815 5813 5811 5809 5807
5880 5878 5876 5875 5873 5872 5870 5868 5866 5864 5863 5861 5858 5856 5854 5852 5849 5847 5845 5842 5840 5838 5836 5834 5832 5830 5828 5826 5824 5822 5819 5817 5815 5814 5813 5812 5810 5808 5806 5804 5802 5800 5798
5877 5875 5874 5872 5870 5868 5867 5865 5863 5861 5859 5857 5854 5852 5850 5847 5845 5842 5840 5837 5835 5832 5830 5828 5826 5824 5822 5820 5818 5816 5814 5811 5809 5807 5806 5804 5801 5800 5797 5795 5793 5791 5789
5874 5872 5870 5869 5867 5865 5863 5861 5859 5857 5855 5852 5850 5848 5845 5842 5840 5837 5835 5832 5830 5828 5825 5823 5820 5818 5816 5814 5812 5810 5808 5805 5803 5801 5798 5796 5794 5792 5789 5787 5784 5782 5780
5870 5868 5866 5865 5863 5861 5859 5857 5854 5852 5850 5848 5845 5843 5840 5838 5835 5832 5830 5827 5825 5822 5820 5818 5815 5813 5811 5808 5806 5804 5801 5799 5796 5794 5791 5789 5786 5783 5781 5778 5775 5772 5770
5865 5864 5862 5861 5859 5857 5855 5852 5850 5848 5845 5843 5841 5838 5835 5833 5830 5827 5825 5822 5819 5817 5815 5812 5810 5808 5805 5803 5800 5798 5795 5792 5789 5786 5783 5780 5778 5775 5772 5769 5765 5762 5759
5861 5859 5858 5856 5854 5852 5850 5848 5845 5843 5840 5838 5835 5833 5830 5828 5825 5822 5820 5817 5814 5812 5809 5807 5804 5802 5799 5797 5794 5791 5788 5785 5782 5778 5775 5772 5769 5766 5762 5759 5755 5752 5749
5856 5854 5853 5851 5849 5847 5845 5843 5840 5838 5835 5833 5831 5828 5825 5823 5820 5817 5815 5812 5809 5807 5804 5801 5798 5796 5793 5790 5787 5784 5781 5777 5774 5770 5766 5763 5759 5756 5753 5749 5746 5742 5739
5850 5849 5847 5846 5844 5842 5840 5837 5835 5833 5830 5828 5825 5823 5820 5818 5815 5812 5810 5807 5804 5801 5798 5796 5793 5790 5787 5783 5780 5776 5773 5769 5766 5762 5758 5754 5751 5747 5743 5740 5736 5732 5729
5845 5843 5842 5840 5838 5836 5834 5832 5830 5828 5825 5823 5820 5818 5815 5812 5809 5807 5804 5801 5798 5796 5793 5790 5786 5783 5780 5776 5772 5769 5765 5762 5758 5754 5750 5746 5742 5738 5734 5730 5727 5723 5720
5838 5837 5836 5834 5833 5831 5829 5827 5825 5822 5820 5817 5814 5812 5809 5806 5804 5801 5798 5796 5793 5789 5786 5783 5780 5776 5773 5769 5765 5762 5758 5754 5750 5746 5742 5737 5733 5729 5725 5722 5718 5714 5711
5832 5830 5829 5828 5826 5825 5823 5821 5819 5817 5814 5811 5809 5806 5803 5801 5798 5795 5792 5789 5786 5783 5780 5777 5773 5769 5766 5762 5758 5754 5750 5746 5742 5738 5734 5730 5725 5721 5717 5713 5709 5706 5702
5825 5824 5822 5821 5820 5818 5816 5815 5813 5810 5808 5806 5803 5801 5798 5795 5792 5789 5786 5783 5780 5777 5774 5770 5766 5763 5759 5755 5751 5747 5743 5739 5735 5730 5726 5722 5718 5714 5709 5705 5702 5698 5695
5817 5816 5815 5814 5813 5811 5810 5808 5806 5804 5802 5799 5797 5794 5792 5789 5786 5783 5780 5777 5774 5770 5767 5764 5760 5756 5752 5748 5744 5740 5736 5732 5728 5723 5719 5715 5711 5707 5703 5699 5695 5691 5688
5810 5809 5808 5807 5806 5804 5803 5801 5799 5797 5795 5793 5791 5788 5786 5783 5780 5777 5774 5771 5767 5764 5760 5757 5753 5749 5745 5741 5737 5733 5729 5725 5721 5717 5712 5708 5704 5700 5696 5692 5689 5685 5681
5803 5802 5801 5800 5799 5797 5796 5794 5792 5791 5788 5786 5784 5781 5779 5776 5773 5770 5767 5764 5761 5757 5754 5750 5746 5742 5739 5735 5731 5727 5722 5718 5714 5710 5706 5702 5698 5694 5690 5686 5682 5678 5675
5796 5795 5794 5793 5792 5790 5788 5787 5785 5783 5781 5779 5777 5775 5772 5769 5767 5764 5761 5757 5754 5751 5747 5743 5739 5736 5732 5728 5724 5720 5716 5711 5707 5703 5699 5696 5692 5688 5684 5680 5676 5672 5669
5789 5788 5787 5786 5785 5783 5782 5780 5778 5776 5775 5773 5771 5768 5765 5762 5760 5757 5754 5751 5747 5744 5740 5737 5733 5729 5725 5721 5717 5713 5709 5705 5701 5697 5693 5689 5685 5682 5678 5674 5670 5667 5663
5782 5781 5780 5779 5778 5776 5775 5773 5772 5770 5768 5766 5764 5761 5758 5756 5753 5750 5747 5744 5740 5737 5733 5730 5726 5722 5718 5714 5710 5706 5702 5698 5695 5691 5687 5683 5679 5676 5672 5668 5665 5661 5658
5774 5774 5773 5772 5771 5769 5768 5767 5765 5763 5761 5759 5757 5754 5751 5749 5746 5743 5740 5737 5734 5730 5726 5723 5719 5715 5711 5707 5703 5700 5696 5692 5688 5684 5681 5677 5673 5670 5666 5663 5659 5656 5653